When you browse on this site, cookies collect data to enhance your experience and personalize the content and advertising you see.
Visit our Privacy Policy to learn more. By continuing to use the site, you agree to this use of cookies and data.
  • In Romania
  • List of Countries
  • For 7 days
  • Water Temperature
  • Weather Map
  • Weather Widgets
  • user-avatar
    Login

    Hourly Weather Santa Fe

    Today, 1 June, Monday

    Time Temperature Precipitation Wind Pressure Humidity
    00:00 +7°C° 0 mm 2 mps 766 mmHg 58%
    01:00 +7°C° 0 mm 2 mps 766 mmHg 59%
    02:00 +6°C° 0 mm 2 mps 766 mmHg 61%
    03:00 +6°C° 0 mm 2 mps 766 mmHg 62%
    04:00 +6°C° 0 mm 2 mps 766 mmHg 63%
    05:00 +5°C° 0 mm 2 mps 765 mmHg 65%
    06:00 +6°C° 0 mm 2 mps 766 mmHg 65%
    07:00 +6°C° 0 mm 2 mps 766 mmHg 65%
    08:00 +6°C° 0 mm 2 mps 767 mmHg 64%
    09:00 +8°C° 0 mm 2 mps 767 mmHg 59%
    10:00 +10°C° 0 mm 2 mps 767 mmHg 54%
    11:00 +13°C° 0 mm 2 mps 767 mmHg 50%
    12:00 +14°C° 0 mm 2 mps 766 mmHg 47%
    13:00 +14°C° 0 mm 2 mps 765 mmHg 45%
    14:00 +15°C° 0 mm 2 mps 765 mmHg 43%
    15:00 +14°C° 0 mm 1 mps 765 mmHg 47%
    16:00 +12°C° 0 mm 1 mps 765 mmHg 52%
    17:00 +10°C° 0 mm 0 mps 764 mmHg 56%
    18:00 +9°C° 0 mm 0 mps 765 mmHg 58%
    19:00 +9°C° 0 mm 0 mps 765 mmHg 61%
    20:00 +8°C° 0 mm 0 mps 766 mmHg 63%
    21:00 +8°C° 0 mm 0 mps 766 mmHg 65%
    22:00 +7°C° 0 mm 0 mps 765 mmHg 66%
    23:00 +8°C° 0 mm 1 mps 765 mmHg 68%

    Tomorrow, 2 June, Tuesday

    Time Temperature Precipitation Wind Pressure Humidity
    00:00 +8°C° 0 mm 1 mps 765 mmHg 70%
    01:00 +7°C° 0 mm 1 mps 765 mmHg 72%
    02:00 +7°C° 0 mm 1 mps 765 mmHg 74%
    03:00 +7°C° 0 mm 1 mps 765 mmHg 76%
    04:00 +7°C° 0 mm 1 mps 764 mmHg 78%
    05:00 +6°C° 0 mm 1 mps 764 mmHg 79%
    06:00 +7°C° 0 mm 1 mps 764 mmHg 78%
    07:00 +7°C° 0 mm 1 mps 765 mmHg 77%
    08:00 +8°C° 0 mm 1 mps 765 mmHg 76%
    09:00 +9°C° 0 mm 2 mps 765 mmHg 69%
    10:00 +12°C° 0 mm 2 mps 765 mmHg 61%
    11:00 +14°C° 0 mm 2 mps 765 mmHg 54%
    12:00 +15°C° 0 mm 2 mps 764 mmHg 51%
    13:00 +16°C° 0 mm 2 mps 763 mmHg 48%
    14:00 +17°C° 0 mm 2 mps 762 mmHg 45%
    15:00 +15°C° 0 mm 2 mps 762 mmHg 50%
    16:00 +14°C° 0 mm 2 mps 762 mmHg 56%
    17:00 +13°C° 0 mm 2 mps 761 mmHg 61%
    18:00 +12°C° 0 mm 2 mps 761 mmHg 64%
    19:00 +10°C° 0 mm 2 mps 762 mmHg 68%
    20:00 +9°C° 0 mm 3 mps 762 mmHg 71%
    21:00 +9°C° 0 mm 3 mps 762 mmHg 74%
    22:00 +9°C° 0 mm 3 mps 762 mmHg 76%
    23:00 +8°C° 0 mm 3 mps 762 mmHg 79%

    Day after tomorrow, 3 June, Wednesday

    Time Temperature Precipitation Wind Pressure Humidity
    00:00 +8°C° 0 mm 3 mps 762 mmHg 81%
    01:00 +7°C° 0 mm 3 mps 762 mmHg 83%
    02:00 +7°C° 0 mm 3 mps 762 mmHg 85%
    03:00 +7°C° 0 mm 3 mps 762 mmHg 86%
    04:00 +5°C° 0 mm 3 mps 762 mmHg 87%
    05:00 +5°C° 0 mm 3 mps 762 mmHg 88%
    06:00 +7°C° 0 mm 3 mps 763 mmHg 86%
    07:00 +7°C° 0 mm 3 mps 763 mmHg 84%
    08:00 +7°C° 0 mm 3 mps 764 mmHg 82%
    09:00 +10°C° 0 mm 4 mps 764 mmHg 75%
    10:00 +12°C° 0 mm 4 mps 764 mmHg 67%
    11:00 +14°C° 0 mm 4 mps 765 mmHg 60%
    12:00 +15°C° 0 mm 4 mps 764 mmHg 58%
    13:00 +17°C° 0 mm 4 mps 764 mmHg 56%
    14:00 +17°C° 0 mm 4 mps 763 mmHg 55%
    15:00 +15°C° 0 mm 4 mps 763 mmHg 61%
    16:00 +14°C° 0 mm 3 mps 764 mmHg 67%
    17:00 +13°C° 0 mm 3 mps 764 mmHg 73%
    18:00 +12°C° 0 mm 3 mps 764 mmHg 77%
    19:00 +12°C° 0 mm 3 mps 765 mmHg 80%
    20:00 +11°C° 0 mm 4 mps 765 mmHg 84%
    21:00 +11°C° 0 mm 3 mps 765 mmHg 85%
    22:00 +11°C° 0 mm 3 mps 765 mmHg 85%
    23:00 +10°C° 0 mm 3 mps 766 mmHg 86%

    4 June, Thursday

    Time Temperature Precipitation Wind Pressure Humidity
    00:00 +10°C° 0 mm 3 mps 765 mmHg 88%
    01:00 +9°C° 0 mm 2 mps 765 mmHg 89%
    02:00 +9°C° 0 mm 2 mps 765 mmHg 91%
    03:00 +9°C° 0 mm 2 mps 765 mmHg 92%
    04:00 +8°C° 0 mm 2 mps 765 mmHg 93%
    05:00 +8°C° 0 mm 2 mps 765 mmHg 94%
    06:00 +8°C° 0 mm 3 mps 765 mmHg 94%
    07:00 +9°C° 0 mm 3 mps 765 mmHg 93%
    08:00 +9°C° 0 mm 3 mps 765 mmHg 92%
    09:00 +11°C° 0 mm 3 mps 765 mmHg 85%
    10:00 +13°C° 0 mm 3 mps 765 mmHg 78%
    11:00 +14°C° 0 mm 3 mps 765 mmHg 71%
    12:00 +16°C° 0 mm 3 mps 765 mmHg 67%
    13:00 +17°C° 0 mm 3 mps 764 mmHg 63%
    14:00 +18°C° 0 mm 4 mps 763 mmHg 60%
    15:00 +18°C° 0 mm 3 mps 763 mmHg 64%
    16:00 +17°C° 0 mm 3 mps 763 mmHg 68%
    17:00 +16°C° 0 mm 3 mps 763 mmHg 72%
    18:00 +16°C° 0.2 mm 3 mps 763 mmHg 76%
    19:00 +14°C° 0.2 mm 3 mps 763 mmHg 80%
    20:00 +13°C° 0.2 mm 3 mps 762 mmHg 83%
    21:00 +13°C° 0.2 mm 3 mps 762 mmHg 84%
    22:00 +13°C° 0.2 mm 3 mps 762 mmHg 85%
    23:00 +12°C° 0.2 mm 3 mps 762 mmHg 86%

    5 June, Friday

    Time Temperature Precipitation Wind Pressure Humidity
    00:00 +12°C° 0.4 mm 3 mps 761 mmHg 88%
    01:00 +12°C° 0.4 mm 4 mps 761 mmHg 89%
    02:00 +12°C° 0.4 mm 4 mps 761 mmHg 90%
    03:00 +12°C° 4.6 mm 5 mps 760 mmHg 91%
    04:00 +12°C° 4.6 mm 5 mps 760 mmHg 92%
    05:00 +11°C° 4.6 mm 6 mps 759 mmHg 93%
    06:00 +11°C° 3.9 mm 6 mps 759 mmHg 93%
    07:00 +11°C° 3.9 mm 6 mps 759 mmHg 93%
    08:00 +11°C° 3.9 mm 7 mps 758 mmHg 93%
    09:00 +11°C° 4.8 mm 7 mps 758 mmHg 93%
    10:00 +11°C° 4.8 mm 8 mps 758 mmHg 93%
    11:00 +11°C° 4.8 mm 9 mps 758 mmHg 93%
    12:00 +11°C° 1.9 mm 8 mps 757 mmHg 92%
    13:00 +11°C° 1.9 mm 8 mps 757 mmHg 92%
    14:00 +12°C° 1.9 mm 8 mps 756 mmHg 92%
    15:00 +12°C° 0.6 mm 7 mps 756 mmHg 91%
    16:00 +12°C° 0.6 mm 7 mps 757 mmHg 91%
    17:00 +12°C° 0.6 mm 7 mps 757 mmHg 90%
    18:00 +13°C° 0 mm 6 mps 757 mmHg 90%
    19:00 +13°C° 0 mm 6 mps 757 mmHg 89%
    20:00 +13°C° 0 mm 5 mps 757 mmHg 89%
    21:00 +13°C° 0 mm 5 mps 758 mmHg 89%
    22:00 +13°C° 0 mm 5 mps 758 mmHg 90%
    23:00 +12°C° 0 mm 5 mps 758 mmHg 90%

    6 June, Saturday

    Time Temperature Precipitation Wind Pressure Humidity
    00:00 +12°C° 0 mm 5 mps 758 mmHg 91%
    01:00 +12°C° 0 mm 5 mps 758 mmHg 92%
    02:00 +11°C° 0 mm 4 mps 758 mmHg 94%
    03:00 +11°C° 0 mm 4 mps 758 mmHg 94%
    04:00 +11°C° 0 mm 4 mps 758 mmHg 95%
    05:00 +11°C° 0 mm 3 mps 758 mmHg 95%
    06:00 +11°C° 0 mm 3 mps 758 mmHg 95%
    07:00 +12°C° 0 mm 3 mps 759 mmHg 95%
    08:00 +12°C° 0 mm 3 mps 759 mmHg 94%
    09:00 +13°C° 0 mm 3 mps 759 mmHg 90%
    10:00 +16°C° 0 mm 3 mps 759 mmHg 87%
    11:00 +17°C° 0 mm 3 mps 759 mmHg 83%
    12:00 +18°C° 0 mm 2 mps 759 mmHg 81%
    13:00 +18°C° 0 mm 2 mps 758 mmHg 80%
    14:00 +19°C° 0 mm 1 mps 758 mmHg 78%
    15:00 +19°C° 0 mm 1 mps 758 mmHg 80%
    16:00 +16°C° 0 mm 0 mps 758 mmHg 81%
    17:00 +16°C° 0 mm 0 mps 757 mmHg 83%
    18:00 +15°C° 0 mm 0 mps 758 mmHg 85%
    19:00 +14°C° 0 mm 0 mps 758 mmHg 87%
    20:00 +13°C° 0 mm 0 mps 758 mmHg 90%
    21:00 +14°C° 0 mm 1 mps 759 mmHg 91%
    22:00 +14°C° 0 mm 1 mps 759 mmHg 92%
    23:00 +14°C° 0 mm 1 mps 760 mmHg 92%
    Show more